Home   Weather   Oran   Past weeks

Flag for Algeria Past Weather in Oran, Algeria — Yesterday and Last 2 Weeks

Now
59 °F

Light rain. Partly sunny.


Feels Like: 59 °F
Forecast: 57 / 63 °F
Wind: 2 mph from Southwest

Location: Oran / Es Senia

Current Time: Dec 6, 2016 at 11:27:06 am

Latest Report: Dec 6, 2016 at 10:30 am


Visibility: 2 mi

Pressure: 30.18 "Hg

Humidity: 94%

Dew Point: 57 °F

Location of OranLocation

Past Weather in Oran — Graph

°F

Oran Temperature Yesterday

Maximum temperature yesterday: 70 °F (at 12:30 pm)
Minimum temperature yesterday: 54 °F (at 1:30 am)
Average temperature yesterday: 60 °F

High & Low Weather Summary for the Past Weeks

 TemperatureHumidityPressure
High81 °F (Nov 22, 1:30 pm)100% (Nov 22, 3:30 am)30.27 "Hg (Nov 22, 3:30 am)
Low43 °F (Nov 25, 5:30 am)21% (Nov 22, 1:30 pm)29.53 "Hg (Nov 22, 3:00 pm)
Average58 °F80%29.91 "Hg
* Reported Nov 21 10:00 am — Dec 6 10:00 am, Oran, Weather by CustomWeather, © 2016

Note: Actual official high and low records may vary slightly from our data, if they occured in-between our weather recording intervals... More about our weather records

Advertising

Oran Weather History for the Previous 24 Hours

Scroll right to see more
 ConditionsComfort  
Time TempWeatherWind HumidityBarometerVisibility
10:00 am
Tue, Dec 6
59 °FLight rain. Partly sunny.2 mph94%30.18 "Hg6 mi
9:30 am59 °FBroken clouds.2 mph100%30.15 "HgN/A
9:00 am59 °FBroken clouds.No wind94%30.15 "Hg6 mi
8:30 am57 °FLight rain. Broken clouds.2 mph100%30.15 "Hg2 mi
8:00 am57 °FBroken clouds.1 mph94%30.15 "Hg4 mi
7:30 am57 °FPassing clouds.No wind100%30.12 "Hg4 mi
7:00 am55 °FPassing clouds.5 mph100%30.12 "Hg4 mi
6:30 am55 °FPassing clouds.3 mph100%30.12 "Hg3 mi
6:00 am55 °FPassing clouds.2 mph100%30.09 "Hg3 mi
5:30 am55 °FPassing clouds.2 mph100%30.09 "Hg3 mi
5:00 am55 °FPassing clouds.2 mph94%30.09 "Hg3 mi
4:30 am55 °FPassing clouds.2 mph100%30.09 "Hg3 mi
4:00 am55 °FPassing clouds.2 mph88%30.09 "Hg3 mi
3:30 am55 °FPassing clouds.No wind100%30.09 "Hg3 mi
3:00 am55 °FPassing clouds.2 mph100%30.09 "Hg3 mi
2:30 am55 °FPassing clouds.2 mph100%30.09 "Hg2 mi
2:00 am55 °FPassing clouds.2 mph100%30.09 "Hg4 mi
1:30 am55 °FPassing clouds.2 mph94%30.09 "Hg4 mi
1:00 am55 °FPassing clouds.2 mph100%30.09 "Hg5 mi
12:30 am57 °FPassing clouds.2 mph94%30.09 "HgN/A
12:00 am57 °FPassing clouds.2 mph94%30.09 "HgN/A
11:30 pm
Mon, Dec 5
57 °FPassing clouds.2 mph94%30.07 "HgN/A
11:00 pm57 °FPassing clouds.2 mph94%30.07 "HgN/A
10:30 pm59 °FPassing clouds.2 mph94%30.07 "HgN/A
10:00 pm61 °FPassing clouds.2 mph88%30.07 "HgN/A
9:30 pm61 °FPassing clouds.5 mph94%30.07 "HgN/A
9:00 pm61 °FPassing clouds.2 mph88%30.04 "HgN/A
8:30 pm61 °FPassing clouds.2 mph88%30.04 "HgN/A
8:00 pm61 °FPassing clouds.2 mph88%30.01 "HgN/A
7:30 pm61 °FPassing clouds.2 mph88%30.01 "HgN/A
7:00 pm61 °FPassing clouds.2 mph88%30.01 "HgN/A
6:30 pm63 °FPassing clouds.2 mph83%29.98 "HgN/A
6:00 pm63 °FPassing clouds.2 mph83%29.98 "HgN/A
5:30 pm64 °FScattered clouds.5 mph73%29.98 "HgN/A
5:00 pm66 °FScattered clouds.5 mph68%29.98 "HgN/A
4:30 pm66 °FScattered clouds.7 mph68%29.98 "HgN/A
4:00 pm66 °FScattered clouds.5 mph68%29.98 "HgN/A
3:30 pm66 °FScattered clouds.6 mph68%29.95 "HgN/A
3:00 pm68 °FScattered clouds.12 mph60%29.95 "HgN/A
2:30 pm70 °FScattered clouds.9 mph57%29.95 "HgN/A
2:00 pm68 °FScattered clouds.7 mph60%29.95 "HgN/A
1:30 pm70 °FScattered clouds.7 mph57%29.95 "HgN/A
1:00 pm70 °FScattered clouds.2 mph53%29.95 "HgN/A
12:30 pm70 °FBroken clouds.5 mph53%29.95 "HgN/A
12:00 pm66 °FBroken clouds.2 mph68%29.98 "HgN/A
11:30 am64 °FBroken clouds.No wind68%29.98 "HgN/A
11:00 am61 °FScattered clouds.No wind88%29.98 "HgN/A
Weather by CustomWeather, © 2016

See weather overviewHow to use our weather pages